Starlink 11397

operational
NORAD ID: 62590 Int'l Des: 2025-008 Owner: SPXS Country: US Constellation: starlink
LEOCIRCULAR

关于 Starlink 11397

正在加载描述...

实时位置

正在加载3D地球...

即将过境

高度历史

Altitude vs Time

uPlot chart will show altitude changes over time

两行轨道根数

1 62590U 25008D 26035.20823702 .00260054 00000-0 19578-2 0 9996
2 62590 43.0010 327.5194 0004223 263.5917 96.4470 15.70950881 61963
Epoch: Feb 4, 2026 • Age: 10 hours

当前状态

高度 363.5 km
速度 7.69 km/s
星下点 -36.14°S, 166.19°W
发射日期 Jan 13, 2025
运行时间 1 years
类型 internet

技术详情

分类 Payload
质量 960.00 kg
干质量 910.00 kg
总质量 960.00 kg
长度 0.30 m
直径 4.10 m
跨度 29.00 m
形状 Box + pan
制造商 SPXS
平台类型 Starlink V2MD
阶段状态 In Orbit
所有者/国家 SPXS/US

大型星座

Loading constellations...